Back to catalog

STARLINK-34125

AliveCommunicationsVLEO
NORAD 63901·PAYLOAD·🇺🇸 United States

Launched May 10, 2025 from Cape Canaveral Space Force Station

Loading…

Next Passes (next 24 hours)

TLE

FreshSource: CelesTrak SupGP

Epoch: Sep 14, 2026, 15:36 UTC

1 63901C 25095M   26257.65048611  .00025310  00000+0  91703-3 0  2573
2 63901  43.0003 189.0764 0001548 264.4069 207.8906 15.27554345    19

Track STARLINK-34125 in real time with AllMySat

Download on the App Store